Regional Weather Roundup
Issued by NWS Sioux Falls, SD

Home | Current Version | Previous Version | Text Only | Print | Product List | Glossary On
Versions: 1 2 3 4 5 6 7 8 9 10 11 12 13 14 15 16 17 18 19 20 21 22 23 24 25 26 27 28 29 30 31 32 33 34 35 36 37 38 39 40 41 42 43 44 45 46 47 48 49 50
000
ASUS43 KFSD 231010
RWRFSD

WEATHER ROUNDUP FOR SE SOUTH DAKOTA/SW MINNESOTA/NW IOWA
NATIONAL WEATHER SERVICE SIOUX FALLS SD
400 AM CST FRI FEB 23 2018

NOTE: "FAIR" INDICATES FEW OR NO CLOUDS BELOW 12,000 FEET WITH NO
SIGNIFICANT WEATHER AND OR OBSTRUCTIONS TO VISIBILITY.


SDZ038>040-050-052>070-231100-
SOUTHEAST SOUTH DAKOTA

CITY           SKY/WX    TMP DP  RH WIND       PRES   REMARKS
BROOKINGS      CLOUDY    17  16  95 W8        30.08F WCI   7
CHAMBERLAIN    CLOUDY    16  15  95 W8        30.19R WCI   5
HURON          CLOUDY    11   9  92 W7        30.14R WCI   0
MADISON          N/A     18  18 100 NW14      30.09S WCI   4
MITCHELL       CLOUDY    10   8  92 W8        30.17R FOG     WCI  -2
SIOUX FALLS    CLOUDY    19  18  95 W7        30.12R FOG     WCI  10
WINNER         CLOUDY    15  11  83 NW13      30.17R WCI   1
YANKTON        PTCLDY    17  16  95 W8        30.16R WCI   7
$$

MNZ071-072-080-081-089-090-097-098-231100-
SOUTHWEST MINNESOTA

CITY           SKY/WX    TMP DP  RH WIND       PRES   REMARKS
FAIRMONT       CLOUDY    26  23  88 W14       30.09R WCI  14
JACKSON        CLOUDY    25  23  93 W14       30.09S WCI  13
LUVERNE        CLOUDY    21  19  93 W12       30.12R WCI   9
MARSHALL       MOCLDY    19  16  88 MISG      30.09R
MONTEVIDEO     CLOUDY    21  21 100 CALM      30.08S FOG
PIPESTONE      CLOUDY    18  16  93 NW12      30.08S FOG     WCI   5
REDWOOD FALLS  CLOUDY    25  23  92 W8        30.07F WCI  16
TRACY          CLOUDY    24  22  91 W6        30.08R WCI  17
WORTHINGTON    CLOUDY    22  20  92 W20       30.08F WCI   7
$$

IAZ001>003-012>014-020>022-031-032-NEZ013-014-SDZ071-231100-
NORTHWEST IOWA

CITY           SKY/WX    TMP DP  RH WIND       PRES   REMARKS
CHEROKEE       MOCLDY    24  23  96 W7        30.13F WCI  16
DENISON        CLOUDY    27  25  93 W12       30.17R WCI  16
ESTHERVILLE    CLOUDY    24  22  91 W17       30.08F WCI  11
LE MARS        CLEAR     18  18 100 W6        30.15S FOG     WCI   9
ORANGE CITY    PTCLDY    21  19  93 W10       30.12F WCI  10
SHELDON        CLOUDY    21  21 100 W13       30.10F FOG     WCI   9
SIOUX CITY     CLEAR     18  16  92 W8        30.16F WCI   8
SPENCER        CLOUDY    25  21  85 W14       30.10F WCI  13
STORM LAKE     CLOUDY    25  23  93 W13       30.11S WCI  13
$$

ABBREVIATIONS USED IN REMARKS
   TC - TEMPERATURE IN CELSIUS
  WCI - WIND CHILL INDEX
   HX - HEAT INDEX
  VSB - VISIBILITY





USA.gov is the U.S. government's official web portal to all federal, state and local government web resources and services.